When you browse on this site, cookies collect data to enhance your experience and personalize the content and advertising you see.
Visit our Privacy Policy to learn more. By continuing to use the site, you agree to this use of cookies and data.
  • In Deutschland
  • Länderverzeichnis
  • Für 7 Tage
  • Wassertemperatur
  • Satellitenkarten
  • Wetterkarte
  • Widgets
  • user-avatar
    Anmelden

    Stündliche Wetter Suhoy Ruchey

    Heute, 22 Februar, Freitag

    Zeit Temperatur Niederschläge Wind Luftdruck Luftfeuchtigkeit
    00:00 -4°C° 0 mm 3 m/S 724 mmHg 62%
    01:00 -4°C° 0 mm 3 m/S 724 mmHg 60%
    02:00 -5°C° 0 mm 3 m/S 724 mmHg 62%
    03:00 -5°C° 0 mm 3 m/S 724 mmHg 63%
    04:00 -5°C° 0 mm 3 m/S 725 mmHg 64%
    05:00 -5°C° 0 mm 2 m/S 725 mmHg 63%
    06:00 -5°C° 0 mm 2 m/S 726 mmHg 63%
    07:00 -4°C° 0 mm 2 m/S 726 mmHg 61%
    08:00 -2°C° 0 mm 2 m/S 726 mmHg 62%
    09:00 +1°C° 0 mm 2 m/S 726 mmHg 63%
    10:00 +3°C° 0 mm 2 m/S 726 mmHg 63%
    11:00 +2°C° 0 mm 2 m/S 726 mmHg 69%
    12:00 +2°C° 0 mm 2 m/S 726 mmHg 74%
    13:00 +2°C° 0 mm 2 m/S 726 mmHg 80%
    14:00 +2°C° 0.1 mm 2 m/S 726 mmHg 83%
    15:00 +1°C° 0.1 mm 2 m/S 726 mmHg 86%
    16:00 -1°C° 0.1 mm 2 m/S 727 mmHg 89%
    17:00 -1°C° 0.2 mm 2 m/S 727 mmHg 91%
    18:00 -2°C° 0.2 mm 2 m/S 728 mmHg 93%
    19:00 -3°C° 0.2 mm 2 m/S 728 mmHg 95%
    20:00 -4°C° 0.2 mm 2 m/S 728 mmHg 95%
    21:00 -4°C° 0.2 mm 2 m/S 729 mmHg 94%
    22:00 -5°C° 0.2 mm 2 m/S 729 mmHg 94%
    23:00 -4°C° 0.1 mm 1 m/S 729 mmHg 93%

    Morgen, 23 Februar, Samstag

    Zeit Temperatur Niederschläge Wind Luftdruck Luftfeuchtigkeit
    00:00 -4°C° 0.1 mm 1 m/S 730 mmHg 93%
    01:00 -6°C° 0.1 mm 1 m/S 730 mmHg 93%
    02:00 -7°C° 0 mm 1 m/S 730 mmHg 93%
    03:00 -8°C° 0 mm 1 m/S 730 mmHg 92%
    04:00 -9°C° 0 mm 1 m/S 730 mmHg 92%
    05:00 -9°C° 0 mm 1 m/S 730 mmHg 90%
    06:00 -9°C° 0 mm 1 m/S 730 mmHg 88%
    07:00 -10°C° 0 mm 1 m/S 730 mmHg 86%
    08:00 -8°C° 0 mm 1 m/S 730 mmHg 82%
    09:00 -6°C° 0 mm 1 m/S 730 mmHg 78%
    10:00 -4°C° 0 mm 0 m/S 730 mmHg 74%
    11:00 -2°C° 0 mm 1 m/S 730 mmHg 74%
    12:00 -1°C° 0 mm 1 m/S 729 mmHg 73%
    13:00 0°C° 0 mm 1 m/S 728 mmHg 72%
    14:00 -1°C° 0 mm 1 m/S 728 mmHg 74%
    15:00 -1°C° 0 mm 1 m/S 728 mmHg 76%
    16:00 -1°C° 0 mm 1 m/S 727 mmHg 78%
    17:00 -3°C° 0 mm 1 m/S 728 mmHg 80%
    18:00 -4°C° 0 mm 1 m/S 728 mmHg 82%
    19:00 -7°C° 0 mm 1 m/S 729 mmHg 85%
    20:00 -8°C° 0 mm 2 m/S 729 mmHg 82%
    21:00 -8°C° 0 mm 2 m/S 729 mmHg 80%
    22:00 -8°C° 0 mm 2 m/S 729 mmHg 78%
    23:00 -8°C° 0 mm 2 m/S 729 mmHg 76%

    übermorgen, 24 Februar, Sonntag

    Zeit Temperatur Niederschläge Wind Luftdruck Luftfeuchtigkeit
    00:00 -8°C° 0 mm 2 m/S 729 mmHg 74%
    01:00 -9°C° 0 mm 2 m/S 729 mmHg 72%
    02:00 -9°C° 0 mm 2 m/S 729 mmHg 72%
    03:00 -9°C° 0 mm 2 m/S 729 mmHg 71%
    04:00 -9°C° 0 mm 2 m/S 729 mmHg 71%
    05:00 -9°C° 0 mm 2 m/S 729 mmHg 70%
    06:00 -9°C° 0 mm 2 m/S 729 mmHg 70%
    07:00 -9°C° 0 mm 2 m/S 729 mmHg 70%
    08:00 -6°C° 0 mm 2 m/S 729 mmHg 68%
    09:00 -2°C° 0 mm 1 m/S 729 mmHg 67%
    10:00 0°C° 0 mm 1 m/S 729 mmHg 65%
    11:00 +2°C° 0 mm 1 m/S 728 mmHg 64%
    12:00 +3°C° 0 mm 1 m/S 727 mmHg 62%
    13:00 +3°C° 0 mm 0 m/S 727 mmHg 61%
    14:00 +4°C° 0 mm 1 m/S 726 mmHg 63%
    15:00 +3°C° 0 mm 1 m/S 726 mmHg 66%
    16:00 +3°C° 0 mm 1 m/S 725 mmHg 68%
    17:00 +1°C° 0 mm 1 m/S 725 mmHg 71%
    18:00 -1°C° 0 mm 1 m/S 726 mmHg 74%
    19:00 -5°C° 0 mm 2 m/S 726 mmHg 77%
    20:00 -5°C° 0 mm 2 m/S 725 mmHg 76%
    21:00 -5°C° 0 mm 2 m/S 725 mmHg 75%
    22:00 -6°C° 0 mm 2 m/S 725 mmHg 74%
    23:00 -6°C° 0 mm 2 m/S 725 mmHg 73%

    25 Februar, Montag

    Zeit Temperatur Niederschläge Wind Luftdruck Luftfeuchtigkeit
    00:00 -6°C° 0 mm 2 m/S 724 mmHg 71%
    01:00 -6°C° 0 mm 2 m/S 724 mmHg 70%
    02:00 -7°C° 0 mm 3 m/S 723 mmHg 69%
    03:00 -8°C° 0 mm 3 m/S 723 mmHg 68%
    04:00 -8°C° 0 mm 3 m/S 722 mmHg 67%
    05:00 -8°C° 0 mm 3 m/S 722 mmHg 67%
    06:00 -8°C° 0 mm 3 m/S 722 mmHg 67%
    07:00 -8°C° 0 mm 3 m/S 722 mmHg 66%
    08:00 -5°C° 0 mm 2 m/S 722 mmHg 66%
    09:00 -3°C° 0 mm 2 m/S 722 mmHg 65%
    10:00 +1°C° 0 mm 1 m/S 721 mmHg 64%
    11:00 +3°C° 0 mm 1 m/S 721 mmHg 64%
    12:00 +4°C° 0 mm 1 m/S 721 mmHg 63%
    13:00 +5°C° 0 mm 1 m/S 720 mmHg 63%
    14:00 +5°C° 0 mm 1 m/S 720 mmHg 65%
    15:00 +4°C° 0 mm 1 m/S 720 mmHg 68%
    16:00 +4°C° 0 mm 1 m/S 720 mmHg 71%
    17:00 +1°C° 0 mm 1 m/S 720 mmHg 75%
    18:00 -1°C° 0 mm 1 m/S 720 mmHg 79%
    19:00 -4°C° 0 mm 0 m/S 721 mmHg 84%
    20:00 -3°C° 0 mm 1 m/S 721 mmHg 84%
    21:00 -4°C° 0 mm 1 m/S 722 mmHg 85%
    22:00 -4°C° 0 mm 1 m/S 722 mmHg 85%
    23:00 -4°C° 0 mm 1 m/S 722 mmHg 85%

    26 Februar, Dienstag

    Zeit Temperatur Niederschläge Wind Luftdruck Luftfeuchtigkeit
    00:00 -4°C° 0 mm 1 m/S 722 mmHg 85%
    01:00 -6°C° 0 mm 1 m/S 722 mmHg 85%
    02:00 -6°C° 0 mm 1 m/S 722 mmHg 84%
    03:00 -6°C° 0 mm 1 m/S 722 mmHg 83%
    04:00 -7°C° 0 mm 1 m/S 722 mmHg 83%
    05:00 -7°C° 0 mm 1 m/S 722 mmHg 82%
    06:00 -7°C° 0 mm 1 m/S 722 mmHg 81%
    07:00 -7°C° 0 mm 1 m/S 723 mmHg 80%
    08:00 -4°C° 0 mm 1 m/S 723 mmHg 77%
    09:00 -3°C° 0 mm 0 m/S 723 mmHg 73%
    10:00 -1°C° 0 mm 0 m/S 723 mmHg 70%
    11:00 +1°C° 0 mm 1 m/S 723 mmHg 70%
    12:00 +2°C° 0 mm 1 m/S 722 mmHg 70%
    13:00 +3°C° 0 mm 1 m/S 722 mmHg 70%
    14:00 +2°C° 0 mm 1 m/S 721 mmHg 74%
    15:00 +2°C° 0 mm 1 m/S 721 mmHg 77%
    16:00 +1°C° 0 mm 1 m/S 721 mmHg 80%
    17:00 0°C° 0 mm 1 m/S 721 mmHg 84%
    18:00 -2°C° 0 mm 1 m/S 721 mmHg 87%
    19:00 -4°C° 0 mm 1 m/S 722 mmHg 91%
    20:00 -4°C° 0 mm 1 m/S 722 mmHg 89%
    21:00 -4°C° 0 mm 1 m/S 722 mmHg 87%
    22:00 -4°C° 0 mm 1 m/S 723 mmHg 85%
    23:00 -4°C° 0 mm 1 m/S 723 mmHg 84%

    27 Februar, Mittwoch

    Zeit Temperatur Niederschläge Wind Luftdruck Luftfeuchtigkeit
    00:00 -6°C° 0 mm 1 m/S 723 mmHg 83%
    01:00 -6°C° 0 mm 1 m/S 723 mmHg 82%
    02:00 -6°C° 0 mm 1 m/S 723 mmHg 80%
    03:00 -7°C° 0 mm 2 m/S 723 mmHg 79%
    04:00 -7°C° 0 mm 2 m/S 723 mmHg 77%
    05:00 -7°C° 0 mm 2 m/S 723 mmHg 75%
    06:00 -7°C° 0 mm 2 m/S 723 mmHg 74%
    07:00 -7°C° 0 mm 2 m/S 723 mmHg 72%
    08:00 -3°C° 0 mm 1 m/S 723 mmHg 69%
    09:00 -1°C° 0 mm 1 m/S 723 mmHg 65%
    10:00 0°C° 0 mm 0 m/S 723 mmHg 62%
    11:00 +1°C° 0 mm 0 m/S 723 mmHg 62%
    12:00 +3°C° 0 mm 1 m/S 723 mmHg 61%
    13:00 +3°C° 0 mm 1 m/S 722 mmHg 61%
    14:00 +3°C° 0 mm 1 m/S 722 mmHg 64%
    15:00 +2°C° 0 mm 1 m/S 722 mmHg 68%
    16:00 +2°C° 0 mm 1 m/S 721 mmHg 71%
    17:00 0°C° 0 mm 1 m/S 722 mmHg 75%
    18:00 -2°C° 0 mm 1 m/S 722 mmHg 79%
    19:00 -3°C° 0 mm 1 m/S 722 mmHg 84%
    20:00 -3°C° 0 mm 1 m/S 722 mmHg 82%
    21:00 -4°C° 0 mm 1 m/S 722 mmHg 80%
    22:00 -6°C° 0 mm 2 m/S 722 mmHg 79%
    23:00 -6°C° 0 mm 2 m/S 722 mmHg 77%
    Mehr zeigen